Content
SEND FEEDBACK

Daily
Averages
Monthly
Summary
United States of America

PLACITAS, NEW MEXICO


Home > North America > United States > New Mexico
Elevation: 10518 feet     Latitude: 35 13N     Longitude: 106 27W

WEATHER
 
SELECT A DAY
Number of Records: 176,699;   Date Range: 1/1/95 - 9/28/14
 
SHARE

PRINT THIS DATA

[ ← Previous Day ]
WEATHER ALMANAC - JANUARY 31, 2013
[ Next Day → ]
[ °C ]   °F
Weather ElementAverageHighLow
Temperature37.7 °F52 °F (2:52 pm)23 °F (6:52 am)
Dewpoint18 °F21 °F (10:52 am)15.1 °F (1:52 am)
Humidity48.3 %72 % (6:52 am)23 % (3:52 pm)
Barometer30.27 in30.35 in (7:52 am)30.22 in (1:52 pm)
Wind Speed5.9 mph12.7 mph (12:24 pm)
Wind Gust20.7 mph (12:24 pm)
Weather ElementAverage
Visibility10 mi
Wind DirectionSSW (213.8 °)

Weather ElementTotal
Precipitation---
Heating Degree Days27.5 (Base 65)
Averaged from 24 records on January 31, 2013
WEATHER CONDITIONS BREAKOUT
WIND DIRECTION BREAKOUT
WEATHER BY HOUR - JANUARY 31, 2013
[ °C ]   °F
Local TimeTemperatureDewpointHumidityBarometerVisibilityWind DirectionWind SpeedGust SpeedPrecipitationEventsConditions
1:52 AM26.1 °F15.1 °F63 %30.24 in10.0 miSE (130°)3.5 mphClear
2:52 AM25.0 °F15.1 °F66 %30.25 in10.0 miESE (120°)4.6 mphClear
3:52 AM26.1 °F15.1 °F63 %30.26 in10.0 miSouth (180°)3.5 mphClear
4:52 AM24.1 °F15.1 °F69 %30.28 in10.0 miSouth (170°)6.9 mphClear
5:52 AM24.1 °F15.1 °F69 %30.29 in10.0 miCalmClear
6:52 AM23.0 °F15.1 °F72 %30.32 in10.0 miESE (110°)4.6 mphClear
7:52 AM25.0 °F17.1 °F72 %30.35 in10.0 miESE (120°)3.5 mphPartly Cloudy
8:52 AM30.9 °F19.0 °F61 %30.35 in10.0 miCalmPartly Cloudy
9:52 AM35.1 °F19.9 °F54 %30.35 in10.0 miCalmPartly Cloudy
10:52 AM39.9 °F21.0 °F47 %30.33 in10.0 miVariable4.6 mphPartly Cloudy
11:52 AM44.1 °F21.0 °F40 %30.27 in10.0 miWNW (300°)5.8 mphPartly Cloudy
12:24 PM46.4 °F19.4 °F34 %30.25 in10.0 miNNW (330°)12.7 mph20.7 mphPartly Cloudy
12:52 PM48.0 °F19.0 °F32 %30.23 in10.0 miNNW (330°)12.7 mph20.7 mphPartly Cloudy
1:52 PM50.0 °F17.1 °F27 %30.22 in10.0 miNW (310°)9.2 mphScattered Clouds
2:52 PM52.0 °F17.1 °F25 %30.23 in10.0 miNW (320°)6.9 mphScattered Clouds
3:52 PM52.0 °F15.1 °F23 %30.23 in10.0 miNorth (350°)8.1 mphScattered Clouds
4:52 PM48.9 °F18.0 °F29 %30.25 in10.0 miSW (230°)6.9 mphMostly Cloudy
5:52 PM48.0 °F18.0 °F30 %30.25 in10.0 miNorth (350°)5.8 mphMostly Cloudy
6:52 PM45.0 °F18.0 °F34 %30.28 in10.0 miNorth (360°)6.9 mphScattered Clouds
7:52 PM44.1 °F19.9 °F38 %30.27 in10.0 miNorth (360°)9.2 mphScattered Clouds
8:52 PM42.1 °F21.0 °F43 %30.26 in10.0 miNorth (350°)8.1 mphPartly Cloudy
9:52 PM37.0 °F21.0 °F52 %30.28 in10.0 miWest (280°)6.9 mphPartly Cloudy
10:52 PM36.0 °F21.0 °F55 %30.28 in10.0 miNW (320°)5.8 mphPartly Cloudy
11:52 PM32.0 °F19.9 °F61 %30.27 in10.0 miESE (110°)4.6 mphPartly Cloudy
Hourly data recorded from KABQ, located miles away from Placitas, New Mexico







STORIES FROM OUR PARTNERS